Lid_Strength_Index
2 2 2 3 3 3 3 4 4 4 4 4 4 4 4 4 4 4 4 4 4 5 5 4 4 3 6 9 7 2 -3 -2 1 6 8 8 8 9 10 7 7 9 8 7 7 7 7
2 2 3 3 3 3 3 3 3 3 4 4 4 4 4 4 4 4 4 4 5 5 5 4 4 3 8 12 4 -0 1 2 5 8 8 7 7 6 9 7 8 7 7 8 7 7 7
1 1 2 3 3 3 3 3 3 3 3 3 4 4 4 4 4 4 4 5 5 5 4 4 4 4 8 10 3 -0 1 3 5 8 7 5 7 8 9 10 5 7 10 9 8 8 9
1 1 2 3 3 3 3 3 3 3 3 3 4 4 4 4 4 4 5 5 5 5 4 4 3 6 10 5 4 5 3 6 5 7 7 5 5 8 9 9 8 9 10 13 9 8 8
1 2 2 2 3 3 3 3 3 3 3 3 3 4 4 3 4 5 5 5 5 4 3 3 7 8 8 1 6 5 4 5 8 8 7 4 6 9 9 11 11 10 15 13 12 8 9
2 2 3 3 3 3 3 3 3 3 3 4 4 4 4 4 4 5 6 5 5 4 3 3 4 8 6 5 6 5 6 5 7 8 7 8 8 10 11 13 15 15 13 13 13 10 10
2 2 2 3 3 3 3 3 3 3 3 4 4 4 4 4 5 6 7 8 8 8 6 7 7 6 5 5 4 6 5 5 5 7 10 8 10 12 10 11 11 11 13 14 12 9 11
2 3 3 3 3 3 3 3 3 3 4 4 4 4 5 5 6 6 7 10 8 6 9 5 4 4 3 5 6 5 4 7 7 9 9 10 11 8 8 10 9 11 13 14 11 10 10
2 2 3 3 3 3 3 3 3 3 3 4 4 4 5 5 6 7 8 6 5 6 10 6 5 4 4 7 7 7 5 7 9 10 11 12 9 7 9 11 11 12 13 13 13 11 10
2 2 2 3 3 3 3 3 3 3 3 4 4 5 5 6 7 7 7 4 4 6 12 9 8 7 7 6 8 5 4 5 7 10 10 11 8 9 11 10 10 15 10 11 12 13 17
2 2 2 2 2 3 3 3 3 3 3 4 4 5 6 6 9 8 6 5 4 6 17 7 8 3 6 8 8 6 4 6 8 9 10 10 10 11 11 10 9 13 9 11 11 14 14
2 2 2 2 2 2 3 3 3 3 3 4 5 5 6 7 8 6 4 4 6 12 17 9 7 8 8 8 8 6 6 5 5 8 9 8 7 9 10 7 8 8 10 11 12 14 19
3 3 3 2 2 2 3 3 3 4 4 4 6 6 6 5 9 5 5 7 12 15 8 9 10 8 9 10 8 7 8 9 10 13 13 10 9 8 7 11 9 10 14 19 19 19 20
3 3 3 3 2 2 2 3 3 4 4 5 7 7 7 5 6 5 7 9 16 11 10 8 9 9 10 9 8 8 9 10 9 10 13 14 13 10 9 10 12 12 13 17 21 21 19
3 3 3 3 3 3 3 2 3 4 4 6 7 8 7 5 5 5 9 13 13 11 9 10 10 11 10 9 9 8 9 11 9 9 13 14 12 8 8 7 9 12 14 11 16 17 18
2 2 2 3 3 3 3 2 3 4 4 6 9 9 7 4 3 6 10 12 10 7 9 8 12 11 12 11 10 11 10 8 8 7 9 12 14 10 8 8 8 10 9 14 15 21 22
3 3 3 2 3 3 3 2 3 4 5 6 8 10 6 4 4 8 12 12 8 6 8 9 11 11 10 11 10 11 11 8 7 7 8 11 13 11 10 11 12 11 12 13 12 15 19
3 3 3 4 3 3 3 3 4 4 5 7 8 10 6 3 9 10 12 9 7 7 8 9 9 10 10 9 11 11 11 9 6 6 10 10 13 14 12 9 8 10 12 13 15 15 15
2 3 3 4 4 4 3 4 5 4 5 9 9 8 5 6 11 12 10 8 7 7 9 9 9 9 8 10 12 10 9 6 6 7 9 10 13 15 13 11 9 11 11 12 14 14 14
2 2 3 4 4 4 4 4 5 4 4 9 8 10 8 7 9 10 11 10 9 7 7 8 8 9 10 10 10 11 10 7 6 6 5 7 13 13 15 13 11 12 10 10 14 16 16
3 4 4 4 4 5 4 4 5 4 4 8 8 9 8 10 9 8 10 9 8 9 8 8 8 8 10 13 12 12 10 9 7 5 7 9 13 13 11 11 10 11 11 10 12 13 13
4 4 5 5 5 5 5 4 5 4 5 8 9 8 6 8 7 8 10 9 9 9 9 10 9 7 8 11 10 11 10 10 10 7 9 9 12 12 13 10 10 12 11 11 11 12 13
5 5 5 5 5 5 4 4 4 4 6 8 5 5 6 8 9 9 11 9 7 8 7 7 7 8 8 8 6 7 7 8 9 10 10 11 12 13 17 12 11 15 12 12 11 11 12
5 5 5 5 4 4 4 4 4 4 4 7 7 6 8 10 9 9 8 6 8 8 8 7 7 8 6 7 7 8 8 8 7 9 10 11 12 13 16 14 19 13 9 8 10 10 10
5 5 5 4 4 3 3 3 3 4 3 5 7 8 7 10 8 8 7 7 8 9 9 8 6 6 7 8 11 11 12 11 10 9 9 9 11 15 17 17 14 12 10 10 11 12 9
4 4 4 3 3 3 3 3 3 3 3 4 7 6 7 8 9 6 7 7 10 10 9 8 7 7 7 10 11 16 16 14 13 11 10 10 10 13 15 18 19 13 9 7 8 15 8
3 3 3 2 2 2 2 2 2 2 3 3 6 6 7 7 6 6 8 8 6 8 9 9 9 9 8 11 13 14 15 12 15 15 14 13 13 15 16 17 14 9 7 6 15 13 8
2 2 2 2 2 2 2 2 2 2 3 3 7 5 6 6 5 4 4 6 6 7 9 8 8 8 10 11 12 13 14 13 14 12 13 14 15 16 15 18 18 7 8 11 9 7 7
2 2 1 1 1 2 2 2 2 2 3 3 8 4 4 5 5 3 2 3 5 5 7 8 8 8 8 10 10 11 13 12 13 15 10 14 12 13 13 13 9 7 8 6 6 7 7